Stations météo

réclame
Mon MeteoGroup
Siguenza, Espagne (8150): Température de l'air & dewpoint: 12.06.2018 03:00:00 - 18.06.2018 03:00:00 (CEST)Siguenza, Espagne (8150): visibility: 12.06.2018 03:00:00 - 18.06.2018 03:00:00 (CEST)Siguenza, Espagne (8150): Ensoleillement: 12.06.2018 03:00:00 - 18.06.2018 03:00:00 (CEST)Siguenza, Espagne (8150): Quantités de précipitations: 12.06.2018 03:00:00 - 18.06.2018 03:00:00 (CEST)
Date & Time tt [°C] td [°C] vv [km] sd [min] rr [mm]
18.06.2018 03:00:00 10,6 7,7 20 0 0,0
18.06.2018 02:00:00 11,7 7,8 20 0 -
18.06.2018 01:00:00 12,7 8,2 20 0 0,0
18.06.2018 00:00:00 15,1 8,4 20 0 0,0
17.06.2018 23:00:00 16,8 8,8 20 0 0,0
17.06.2018 22:00:00 19,5 7,9 20 0 0,0
17.06.2018 21:00:00 21,8 5,7 20 0 0,0
17.06.2018 20:00:00 24,1 2,9 20 0 -
17.06.2018 19:00:00 25,1 1,9 20 29 0,0
17.06.2018 18:00:00 25,6 2,3 20 60 0,0
17.06.2018 17:00:00 25,8 4,3 20 60 0,0
17.06.2018 16:00:00 26,0 4,5 20 60 0,0
17.06.2018 15:00:00 25,5 7,6 20 60 0,0
17.06.2018 14:00:00 25,3 8,3 20 60 -
17.06.2018 13:00:00 23,7 8,9 20 60 0,0
17.06.2018 12:00:00 23,3 10,4 20 58 0,0
17.06.2018 11:00:00 20,9 6,5 20 25 0,0
17.06.2018 10:00:00 18,1 5,4 20 0 0,0
17.06.2018 09:00:00 13,6 6,2 20 0 0,0
17.06.2018 08:00:00 9,3 6,0 20 0 -
17.06.2018 07:00:00 7,1 5,1 20 0 0,0
17.06.2018 06:00:00 7,3 5,5 20 0 0,0
17.06.2018 05:00:00 8,0 6,0 20 0 0,0
17.06.2018 04:00:00 9,5 6,9 20 0 0,0
17.06.2018 03:00:00 10,6 7,8 20 0 0,0
17.06.2018 02:00:00 12,1 8,4 20 0 -
17.06.2018 01:00:00 13,0 8,9 20 0 0,0
17.06.2018 00:00:00 14,1 9,5 20 0 0,0
16.06.2018 23:00:00 16,8 9,3 20 0 0,0
16.06.2018 22:00:00 19,3 9,5 20 0 0,0
16.06.2018 21:00:00 20,4 4,5 20 0 0,0
16.06.2018 20:00:00 23,7 3,6 20 0 -
16.06.2018 19:00:00 25,0 0,5 20 30 0,0
16.06.2018 18:00:00 25,5 3,5 20 60 0,0
16.06.2018 17:00:00 25,8 1,2 20 60 0,0
16.06.2018 16:00:00 25,6 4,7 20 60 0,0
16.06.2018 15:00:00 24,8 5,6 20 60 0,0
16.06.2018 14:00:00 24,7 6,0 20 60 -
16.06.2018 13:00:00 23,8 9,0 20 60 0,0
16.06.2018 12:00:00 22,7 6,9 20 56 0,0
16.06.2018 11:00:00 20,4 10,5 20 28 0,0
16.06.2018 10:00:00 17,5 12,0 20 0 0,0
16.06.2018 09:00:00 14,3 11,3 20 0 0,0
16.06.2018 08:00:00 11,1 9,9 20 0 -
16.06.2018 07:00:00 9,1 8,2 20 0 0,0
16.06.2018 06:00:00 10,0 8,9 16 0 0,0
16.06.2018 05:00:00 10,4 9,2 15 0 0,0
16.06.2018 04:00:00 11,5 10,1 20 0 0,0
16.06.2018 03:00:00 12,4 10,6 20 0 0,0
16.06.2018 02:00:00 13,3 11,4 20 0 -
16.06.2018 01:00:00 14,3 11,8 20 0 0,0
16.06.2018 00:00:00 15,2 11,8 4,1 0 0,0
15.06.2018 23:00:00 16,6 11,7 20 0 0,0
15.06.2018 22:00:00 18,0 11,8 20 0 0,0
15.06.2018 21:00:00 20,5 12,5 20 0 0,0
15.06.2018 20:00:00 22,1 12,6 20 0 -
15.06.2018 19:00:00 24,8 10,3 20 16 0,0
15.06.2018 18:00:00 25,1 10,6 20 46 0,0
15.06.2018 17:00:00 26,0 10,6 20 59 0,0
15.06.2018 16:00:00 25,9 11,3 20 58 0,0
15.06.2018 15:00:00 25,8 8,8 20 60 0,0
15.06.2018 14:00:00 25,2 6,9 20 60 -
15.06.2018 13:00:00 24,0 5,4 20 60 0,0
15.06.2018 12:00:00 23,2 5,6 20 56 0,0
15.06.2018 11:00:00 21,0 3,7 20 24 0,0
15.06.2018 10:00:00 18,9 1,9 20 1 0,0
15.06.2018 09:00:00 13,4 7,0 20 0 0,0
15.06.2018 08:00:00 9,6 7,2 20 0 -
15.06.2018 07:00:00 6,6 5,6 20 0 0,0
15.06.2018 06:00:00 7,1 5,4 20 0 0,0
15.06.2018 05:00:00 6,8 5,4 20 0 0,0
15.06.2018 04:00:00 7,2 5,5 20 0 0,0
15.06.2018 03:00:00 8,3 5,8 20 0 0,0
15.06.2018 02:00:00 - - - - -
15.06.2018 01:00:00 9,8 6,7 20 0 0,0
15.06.2018 00:00:00 11,0 6,9 20 0 0,0
14.06.2018 23:00:00 13,0 7,9 20 0 0,0
14.06.2018 22:00:00 15,5 9,0 20 0 0,0
14.06.2018 21:00:00 18,2 7,9 20 0 0,0
14.06.2018 20:00:00 20,4 7,1 20 0 -
14.06.2018 19:00:00 21,6 7,8 20 21 0,0
14.06.2018 18:00:00 21,5 7,7 20 58 0,0
14.06.2018 17:00:00 21,5 6,2 20 60 0,0
14.06.2018 16:00:00 21,1 5,1 20 60 0,0
14.06.2018 15:00:00 20,5 7,5 15 60 0,0
14.06.2018 14:00:00 18,5 7,0 20 60 -
14.06.2018 13:00:00 18,3 6,8 20 60 0,0
14.06.2018 12:00:00 16,3 6,4 20 54 0,0
14.06.2018 11:00:00 13,1 6,2 20 4 0,0
14.06.2018 10:00:00 12,4 6,9 20 0 0,0
14.06.2018 09:00:00 10,9 6,5 20 0 0,0
14.06.2018 08:00:00 7,6 5,9 20 0 -
14.06.2018 07:00:00 5,2 4,5 18 0 0,0
14.06.2018 06:00:00 5,1 4,2 12 0 0,0
14.06.2018 05:00:00 6,1 4,7 11 0 0,0
14.06.2018 04:00:00 7,3 5,8 20 0 0,0
14.06.2018 03:00:00 8,5 6,5 20 0 0,0
14.06.2018 02:00:00 9,8 7,2 20 0 -
14.06.2018 01:00:00 10,8 7,3 20 0 0,0
14.06.2018 00:00:00 12,0 7,7 20 0 0,0
13.06.2018 23:00:00 13,7 7,9 20 0 0,0
13.06.2018 22:00:00 14,2 8,2 20 0 0,0
13.06.2018 21:00:00 16,2 8,7 20 0 0,0
13.06.2018 20:00:00 17,5 9,2 20 0 -
13.06.2018 19:00:00 18,2 8,2 20 17 0,0
13.06.2018 18:00:00 18,8 9,3 20 43 0,0
13.06.2018 17:00:00 19,3 6,8 20 28 0,0
13.06.2018 16:00:00 19,9 5,9 20 51 0,0
13.06.2018 15:00:00 19,1 6,9 20 46 0,0
13.06.2018 14:00:00 19,0 8,1 20 39 -
13.06.2018 13:00:00 17,4 7,7 20 28 0,0
13.06.2018 12:00:00 17,5 7,3 20 55 0,0
13.06.2018 11:00:00 16,0 7,5 20 27 0,0
13.06.2018 10:00:00 13,7 7,5 20 1 0,0
13.06.2018 09:00:00 10,3 8,1 20 0 0,0
13.06.2018 08:00:00 6,7 6,1 20 0 -
13.06.2018 07:00:00 4,4 4,0 11 0 0,0
13.06.2018 06:00:00 4,5 3,8 19 0 0,0
13.06.2018 05:00:00 5,4 4,5 19 0 0,0
13.06.2018 04:00:00 6,3 5,3 20 0 0,0
13.06.2018 03:00:00 7,0 5,9 20 0 0,0
13.06.2018 02:00:00 7,9 6,2 20 0 -
13.06.2018 01:00:00 9,8 7,2 20 0 0,0
13.06.2018 00:00:00 11,3 8,3 20 0 0,0
12.06.2018 23:00:00 14,0 9,4 20 0 0,0
12.06.2018 22:00:00 15,6 9,3 20 0 0,0
12.06.2018 21:00:00 16,5 9,4 20 0 0,0
12.06.2018 20:00:00 17,6 9,0 20 0 -
12.06.2018 19:00:00 17,9 9,8 20 10 0,0
12.06.2018 18:00:00 18,7 11,5 20 36 0,0
12.06.2018 17:00:00 19,7 11,0 20 54 0,0
12.06.2018 16:00:00 17,2 10,8 20 29 0,0
12.06.2018 15:00:00 17,7 10,6 20 38 0,0
12.06.2018 14:00:00 17,5 10,4 20 40 -
12.06.2018 13:00:00 17,3 11,6 20 35 0,0
12.06.2018 12:00:00 16,2 10,5 20 5 0,0
12.06.2018 11:00:00 16,4 11,3 20 28 0,0
12.06.2018 10:00:00 13,3 10,7 20 0 0,0
12.06.2018 09:00:00 11,3 10,7 20 0 0,0
12.06.2018 08:00:00 9,0 8,7 20 0 -
12.06.2018 07:00:00 6,9 6,5 - 0 0,0
12.06.2018 06:00:00 7,1 6,4 20 0 0,0
12.06.2018 05:00:00 7,8 6,9 20 0 0,0
12.06.2018 04:00:00 9,2 8,4 20 0 0,0
12.06.2018 03:00:00 9,7 8,6 20 0 0,0

tt = Température de l'air
td = dewpoint
vv = visibility
sd = Ensoleillement
rr = Quantités de précipitations

stations d'obs. à proximité